Volver al catálogo

THURAYA 3

ActivoComunicacionesGEO
NORAD 32404·PAYLOAD·🇦🇪 UAE

Lanzado Jan 15, 2008 desde Sea Launch Platform

Loading…

TLE

ActualizadoSource: Space-Track

Época: Sep 14, 2026, 12:23 UTC

1 32404U 08001A   26257.51646199  .00000002  00000-0  00000-0 0  9997
2 32404   6.1400  35.8288 0002376 165.9934  41.3310  1.00274078 68381

Sigue THURAYA 3 en tiempo real con AllMySat

Download on the App Store